<?xml version='1.0' encoding='UTF-8'?>
<gpx xmlns="http://www.topografix.com/GPX/1/1" creator="www.balnam.be" version="1.1" xmlns:xsi="http://www.w3.org/2001/XMLSchema-instance" xsi:schemaLocation="http://www.topografix.com/GPX/1/1 http://www.topografix.com/GPX/1/1/gpx.xsd">
<trk>
<name>ldhsa10</name>
<cmt>r</cmt>
<desc>Saint-André Chemin n°10 </desc>
<link href="https://chemins.be/saintandre/chemin/10"/><trkseg>
<trkpt lat="50.696072" lon="5.751646"><time>2026-05-07T20:40:36Z</time></trkpt>
<trkpt lat="50.696425" lon="5.750838"><time>2026-05-07T20:50:36Z</time></trkpt>
</trkseg></trk>
<trk>
<name>ldhsa10</name>
<cmt>v</cmt>
<desc>Saint-André Chemin n°10 </desc>
<link href="https://chemins.be/saintandre/chemin/10"/><trkseg>
<trkpt lat="50.696425" lon="5.750838"><time>2026-05-07T20:50:36Z</time></trkpt>
<trkpt lat="50.696704" lon="5.749994"><time>2026-05-07T21:00:36Z</time></trkpt>
</trkseg></trk>
<trk>
<name>ldhsa10</name>
<cmt>s</cmt>
<desc>Saint-André Chemin n°10 </desc>
<link href="https://chemins.be/saintandre/chemin/10"/><trkseg>
<trkpt lat="50.696704" lon="5.749994"><time>2026-05-07T21:00:36Z</time></trkpt>
<trkpt lat="50.697438" lon="5.749378"><time>2026-05-07T21:10:36Z</time></trkpt>
<trkpt lat="50.698699" lon="5.747808"><time>2026-05-07T21:20:36Z</time></trkpt>
<trkpt lat="50.699859" lon="5.745495"><time>2026-05-07T21:30:36Z</time></trkpt>
<trkpt lat="50.700505" lon="5.744279"><time>2026-05-07T21:40:36Z</time></trkpt>
<trkpt lat="50.700849" lon="5.743306"><time>2026-05-07T21:50:36Z</time></trkpt>
</trkseg></trk>
<trk>
<name>ldhsa10</name>
<cmt>r</cmt>
<desc>Saint-André Chemin n°10 </desc>
<link href="https://chemins.be/saintandre/chemin/10"/><trkseg>
<trkpt lat="50.700849" lon="5.743306"><time>2026-05-07T21:50:36Z</time></trkpt>
<trkpt lat="50.701200" lon="5.742351"><time>2026-05-07T22:00:36Z</time></trkpt>
</trkseg></trk>
<trk>
<name>ldhsa10</name>
<cmt>s</cmt>
<desc>Saint-André Chemin n°10 </desc>
<link href="https://chemins.be/saintandre/chemin/10"/><trkseg>
<trkpt lat="50.701200" lon="5.742351"><time>2026-05-07T22:00:36Z</time></trkpt>
<trkpt lat="50.702346" lon="5.738717"><time>2026-05-07T22:10:36Z</time></trkpt>
<trkpt lat="50.703030" lon="5.737436"><time>2026-05-07T22:20:36Z</time></trkpt>
<trkpt lat="50.703261" lon="5.736192"><time>2026-05-07T22:30:36Z</time></trkpt>
</trkseg>
</trk>
<trk>
<name>ldhsa12</name>
<cmt>v</cmt>
<desc>Saint-André Chemin n°12 </desc>
<link href="https://chemins.be/saintandre/chemin/12"/><trkseg>
<trkpt lat="50.704652" lon="5.735834"><time>2026-05-07T20:40:36Z</time></trkpt>
<trkpt lat="50.704043" lon="5.735461"><time>2026-05-07T20:50:36Z</time></trkpt>
</trkseg>
</trk>
<trk>
<name>ldhsa15</name>
<cmt>s</cmt>
<desc>Saint-André Chemin n°15 </desc>
<link href="https://chemins.be/saintandre/chemin/15"/><trkseg>
<trkpt lat="50.684395" lon="5.770188"><time>2026-05-07T20:40:36Z</time></trkpt>
<trkpt lat="50.682881" lon="5.769015"><time>2026-05-07T20:50:36Z</time></trkpt>
<trkpt lat="50.682306" lon="5.769129"><time>2026-05-07T21:00:36Z</time></trkpt>
</trkseg>
</trk>
<trk>
<name>ldhsa17</name>
<cmt>r</cmt>
<desc>Saint-André Chemin n°17 Rue de Loneux</desc>
<link href="https://chemins.be/saintandre/chemin/17"/><trkseg>
<trkpt lat="50.675289" lon="5.773092"><time>2026-05-07T20:40:36Z</time></trkpt>
<trkpt lat="50.675375" lon="5.771096"><time>2026-05-07T20:50:36Z</time></trkpt>
<trkpt lat="50.674560" lon="5.769141"><time>2026-05-07T21:00:36Z</time></trkpt>
</trkseg></trk>
<trk>
<name>ldhsa17</name>
<cmt>v</cmt>
<desc>Saint-André Chemin n°17 Rue de Loneux</desc>
<link href="https://chemins.be/saintandre/chemin/17"/><trkseg>
<trkpt lat="50.674560" lon="5.769141"><time>2026-05-07T21:00:36Z</time></trkpt>
<trkpt lat="50.672936" lon="5.767477"><time>2026-05-07T21:10:36Z</time></trkpt>
<trkpt lat="50.670869" lon="5.766612"><time>2026-05-07T21:20:36Z</time></trkpt>
<trkpt lat="50.669813" lon="5.766619"><time>2026-05-07T21:30:36Z</time></trkpt>
</trkseg>
</trk>
<trk>
<name>ldhsa19</name>
<cmt>v</cmt>
<desc>Saint-André Chemin n°19 Route de Saint-André</desc>
<link href="https://chemins.be/saintandre/chemin/19"/><trkseg>
<trkpt lat="50.680589" lon="5.754277"><time>2026-05-07T20:40:36Z</time></trkpt>
<trkpt lat="50.682743" lon="5.753080"><time>2026-05-07T20:50:36Z</time></trkpt>
</trkseg>
</trk>
<trk>
<name>ldhsa22</name>
<cmt>v</cmt>
<desc>Saint-André Chemin n°22 </desc>
<link href="https://chemins.be/saintandre/chemin/22"/><trkseg>
<trkpt lat="50.695463" lon="5.754343"><time>2026-05-07T20:40:36Z</time></trkpt>
<trkpt lat="50.695303" lon="5.754620"><time>2026-05-07T20:50:36Z</time></trkpt>
</trkseg></trk>
<trk>
<name>ldhsa22</name>
<cmt>q</cmt>
<desc>Saint-André Chemin n°22 </desc>
<link href="https://chemins.be/saintandre/chemin/22"/><trkseg>
<trkpt lat="50.695303" lon="5.754620"><time>2026-05-07T20:50:36Z</time></trkpt>
<trkpt lat="50.694241" lon="5.757172"><time>2026-05-07T21:00:36Z</time></trkpt>
<trkpt lat="50.694295" lon="5.758181"><time>2026-05-07T21:10:36Z</time></trkpt>
</trkseg>
</trk>
<trk>
<name>ldhsa23</name>
<cmt>v</cmt>
<desc>Saint-André Chemin n°23 </desc>
<link href="https://chemins.be/saintandre/chemin/23"/><trkseg>
<trkpt lat="50.697186" lon="5.744203"><time>2026-05-07T20:40:36Z</time></trkpt>
<trkpt lat="50.697761" lon="5.745283"><time>2026-05-07T20:50:36Z</time></trkpt>
<trkpt lat="50.698160" lon="5.745640"><time>2026-05-07T21:00:36Z</time></trkpt>
<trkpt lat="50.699405" lon="5.745361"><time>2026-05-07T21:10:36Z</time></trkpt>
<trkpt lat="50.699849" lon="5.745447"><time>2026-05-07T21:20:36Z</time></trkpt>
</trkseg>
</trk>
<trk>
<name>ldhsa23bis</name>
<cmt>q</cmt>
<desc>Saint-André Chemin n°23bis </desc>
<link href="https://chemins.be/saintandre/chemin/23bis"/><trkseg>
<trkpt lat="50.697765" lon="5.745313"><time>2026-05-07T20:40:36Z</time></trkpt>
<trkpt lat="50.696520" lon="5.746229"><time>2026-05-07T20:50:36Z</time></trkpt>
<trkpt lat="50.695772" lon="5.746322"><time>2026-05-07T21:00:36Z</time></trkpt>
<trkpt lat="50.694743" lon="5.746193"><time>2026-05-07T21:10:36Z</time></trkpt>
<trkpt lat="50.692857" lon="5.748453"><time>2026-05-07T21:20:36Z</time></trkpt>
<trkpt lat="50.691561" lon="5.750957"><time>2026-05-07T21:30:36Z</time></trkpt>
</trkseg>
</trk>
<trk>
<name>ldhsa26</name>
<cmt>r</cmt>
<desc>Saint-André Chemin n°26 Chenestre</desc>
<link href="https://chemins.be/saintandre/chemin/26"/><trkseg>
<trkpt lat="50.707682" lon="5.734039"><time>2026-05-07T20:40:36Z</time></trkpt>
<trkpt lat="50.707550" lon="5.733245"><time>2026-05-07T20:50:36Z</time></trkpt>
<trkpt lat="50.707566" lon="5.732730"><time>2026-05-07T21:00:36Z</time></trkpt>
</trkseg></trk>
<trk>
<name>ldhsa26</name>
<cmt>d</cmt>
<desc>Saint-André Chemin n°26 Chenestre</desc>
<link href="https://chemins.be/saintandre/chemin/26"/><trkseg>
<trkpt lat="50.707566" lon="5.732730"><time>2026-05-07T21:00:36Z</time></trkpt>
<trkpt lat="50.707532" lon="5.731650"><time>2026-05-07T21:10:36Z</time></trkpt>
<trkpt lat="50.707453" lon="5.731380"><time>2026-05-07T21:20:36Z</time></trkpt>
<trkpt lat="50.707241" lon="5.731288"><time>2026-05-07T21:30:36Z</time></trkpt>
<trkpt lat="50.706807" lon="5.731571"><time>2026-05-07T21:40:36Z</time></trkpt>
<trkpt lat="50.705290" lon="5.732222"><time>2026-05-07T21:50:36Z</time></trkpt>
</trkseg>
</trk>
<trk>
<name>ldhsa27</name>
<cmt>v</cmt>
<desc>Saint-André Chemin n°27 Vieille Voie de Loneux</desc>
<link href="https://chemins.be/saintandre/chemin/27"/><trkseg>
<trkpt lat="50.680832" lon="5.762156"><time>2026-05-07T20:40:36Z</time></trkpt>
<trkpt lat="50.680478" lon="5.763133"><time>2026-05-07T20:50:36Z</time></trkpt>
<trkpt lat="50.680189" lon="5.764520"><time>2026-05-07T21:00:36Z</time></trkpt>
<trkpt lat="50.679387" lon="5.767027"><time>2026-05-07T21:10:36Z</time></trkpt>
<trkpt lat="50.679321" lon="5.767517"><time>2026-05-07T21:20:36Z</time></trkpt>
</trkseg>
</trk>
<trk>
<name>ldhsa28</name>
<cmt>s</cmt>
<desc>Saint-André Chemin n°28 Rue de Loneux</desc>
<link href="https://chemins.be/saintandre/chemin/28"/><trkseg>
<trkpt lat="50.679430" lon="5.766904"><time>2026-05-07T20:40:36Z</time></trkpt>
<trkpt lat="50.679051" lon="5.766662"><time>2026-05-07T20:50:36Z</time></trkpt>
<trkpt lat="50.678611" lon="5.766733"><time>2026-05-07T21:00:36Z</time></trkpt>
</trkseg></trk>
<trk>
<name>ldhsa28</name>
<cmt>r</cmt>
<desc>Saint-André Chemin n°28 Rue de Loneux</desc>
<link href="https://chemins.be/saintandre/chemin/28"/><trkseg>
<trkpt lat="50.678611" lon="5.766733"><time>2026-05-07T21:00:36Z</time></trkpt>
<trkpt lat="50.676780" lon="5.766640"><time>2026-05-07T21:10:36Z</time></trkpt>
<trkpt lat="50.676267" lon="5.766422"><time>2026-05-07T21:20:36Z</time></trkpt>
</trkseg></trk>
<trk>
<name>ldhsa28</name>
<cmt>v</cmt>
<desc>Saint-André Chemin n°28 Rue de Loneux</desc>
<link href="https://chemins.be/saintandre/chemin/28"/><trkseg>
<trkpt lat="50.676267" lon="5.766422"><time>2026-05-07T21:20:36Z</time></trkpt>
<trkpt lat="50.675002" lon="5.765858"><time>2026-05-07T21:30:36Z</time></trkpt>
<trkpt lat="50.673804" lon="5.765739"><time>2026-05-07T21:40:36Z</time></trkpt>
<trkpt lat="50.673199" lon="5.765161"><time>2026-05-07T21:50:36Z</time></trkpt>
</trkseg></trk>
<trk>
<name>ldhsa28</name>
<cmt>q</cmt>
<desc>Saint-André Chemin n°28 Rue de Loneux</desc>
<link href="https://chemins.be/saintandre/chemin/28"/><trkseg>
<trkpt lat="50.673199" lon="5.765161"><time>2026-05-07T21:50:36Z</time></trkpt>
<trkpt lat="50.671529" lon="5.764809"><time>2026-05-07T22:00:36Z</time></trkpt>
<trkpt lat="50.669278" lon="5.763037"><time>2026-05-07T22:10:36Z</time></trkpt>
</trkseg>
</trk>
<trk>
<name>ldhsa29</name>
<cmt>d</cmt>
<desc>Saint-André Chemin n°29 </desc>
<link href="https://chemins.be/saintandre/chemin/29"/><trkseg>
<trkpt lat="50.709738" lon="5.734598"><time>2026-05-07T20:40:36Z</time></trkpt>
<trkpt lat="50.710245" lon="5.737722"><time>2026-05-07T20:50:36Z</time></trkpt>
<trkpt lat="50.710286" lon="5.739689"><time>2026-05-07T21:00:36Z</time></trkpt>
</trkseg>
</trk>
<trk>
<name>ldhsa30</name>
<cmt>v</cmt>
<desc>Saint-André Chemin/sentier n°30 </desc>
<link href="https://chemins.be/saintandre/chemin/30"/><trkseg>
<trkpt lat="50.679617" lon="5.767763"><time>2026-05-07T20:40:36Z</time></trkpt>
<trkpt lat="50.679223" lon="5.770739"><time>2026-05-07T20:50:36Z</time></trkpt>
<trkpt lat="50.678925" lon="5.771738"><time>2026-05-07T21:00:36Z</time></trkpt>
</trkseg></trk>
<trk>
<name>ldhsa30</name>
<cmt>q</cmt>
<desc>Saint-André Chemin/sentier n°30 </desc>
<link href="https://chemins.be/saintandre/chemin/30"/><trkseg>
<trkpt lat="50.678925" lon="5.771738"><time>2026-05-07T21:00:36Z</time></trkpt>
<trkpt lat="50.678557" lon="5.772670"><time>2026-05-07T21:10:36Z</time></trkpt>
<trkpt lat="50.677741" lon="5.774150"><time>2026-05-07T21:20:36Z</time></trkpt>
</trkseg>
</trk>
<trk>
<name>ldhsa32</name>
<cmt>v</cmt>
<desc>Saint-André Sentier n°32 </desc>
<link href="https://chemins.be/saintandre/sentier/32"/><trkseg>
<trkpt lat="50.709396" lon="5.733503"><time>2026-05-07T20:40:36Z</time></trkpt>
<trkpt lat="50.709312" lon="5.732609"><time>2026-05-07T20:50:36Z</time></trkpt>
<trkpt lat="50.709398" lon="5.732541"><time>2026-05-07T21:00:36Z</time></trkpt>
<trkpt lat="50.709908" lon="5.732441"><time>2026-05-07T21:10:36Z</time></trkpt>
<trkpt lat="50.710419" lon="5.730950"><time>2026-05-07T21:20:36Z</time></trkpt>
</trkseg>
</trk>
<trk>
<name>ldhsa33</name>
<cmt>q</cmt>
<desc>Saint-André Sentier n°33 </desc>
<link href="https://chemins.be/saintandre/sentier/33"/><trkseg>
<trkpt lat="50.709220" lon="5.733404"><time>2026-05-07T20:40:36Z</time></trkpt>
<trkpt lat="50.708459" lon="5.731765"><time>2026-05-07T20:50:36Z</time></trkpt>
<trkpt lat="50.708334" lon="5.729319"><time>2026-05-07T21:00:36Z</time></trkpt>
</trkseg>
</trk>
<trk>
<name>ldhsa34</name>
<cmt>q</cmt>
<desc>Saint-André Sentier n°34 </desc>
<link href="https://chemins.be/saintandre/sentier/34"/><trkseg>
<trkpt lat="50.707605" lon="5.732384"><time>2026-05-07T20:40:36Z</time></trkpt>
<trkpt lat="50.708428" lon="5.731272"><time>2026-05-07T20:50:36Z</time></trkpt>
</trkseg>
</trk>
<trk>
<name>ldhsa35</name>
<cmt>q</cmt>
<desc>Saint-André Sentier n°35 </desc>
<link href="https://chemins.be/saintandre/sentier/35"/><trkseg>
<trkpt lat="50.707727" lon="5.734093"><time>2026-05-07T20:40:36Z</time></trkpt>
<trkpt lat="50.708066" lon="5.735578"><time>2026-05-07T20:50:36Z</time></trkpt>
<trkpt lat="50.708039" lon="5.736772"><time>2026-05-07T21:00:36Z</time></trkpt>
<trkpt lat="50.708569" lon="5.735896"><time>2026-05-07T21:10:36Z</time></trkpt>
<trkpt lat="50.708927" lon="5.737355"><time>2026-05-07T21:20:36Z</time></trkpt>
<trkpt lat="50.708540" lon="5.741034"><time>2026-05-07T21:30:36Z</time></trkpt>
<trkpt lat="50.708843" lon="5.741084"><time>2026-05-07T21:40:36Z</time></trkpt>
</trkseg>
</trk>
<trk>
<name>ldhsa36</name>
<cmt>q</cmt>
<desc>Saint-André Sentier n°36 </desc>
<link href="https://chemins.be/saintandre/sentier/36"/><trkseg>
<trkpt lat="50.709686" lon="5.734690"><time>2026-05-07T20:40:36Z</time></trkpt>
<trkpt lat="50.709199" lon="5.735098"><time>2026-05-07T20:50:36Z</time></trkpt>
<trkpt lat="50.708578" lon="5.735913"><time>2026-05-07T21:00:36Z</time></trkpt>
<trkpt lat="50.708037" lon="5.736750"><time>2026-05-07T21:10:36Z</time></trkpt>
<trkpt lat="50.707335" lon="5.737222"><time>2026-05-07T21:20:36Z</time></trkpt>
<trkpt lat="50.705523" lon="5.740498"><time>2026-05-07T21:30:36Z</time></trkpt>
<trkpt lat="50.705546" lon="5.740862"><time>2026-05-07T21:40:36Z</time></trkpt>
</trkseg>
</trk>
<trk>
<name>ldhsa37</name>
<cmt>q</cmt>
<desc>Saint-André Sentier n°37 </desc>
<link href="https://chemins.be/saintandre/sentier/37"/><trkseg>
<trkpt lat="50.703838" lon="5.738667"><time>2026-05-07T20:40:36Z</time></trkpt>
<trkpt lat="50.705582" lon="5.740934"><time>2026-05-07T20:50:36Z</time></trkpt>
</trkseg>
</trk>
<trk>
<name>ldhsa38</name>
<cmt>q</cmt>
<desc>Saint-André Sentier n°38 </desc>
<link href="https://chemins.be/saintandre/sentier/38"/><trkseg>
<trkpt lat="50.704805" lon="5.741418"><time>2026-05-07T20:40:36Z</time></trkpt>
<trkpt lat="50.705027" lon="5.742787"><time>2026-05-07T20:50:36Z</time></trkpt>
<trkpt lat="50.704927" lon="5.743206"><time>2026-05-07T21:00:36Z</time></trkpt>
<trkpt lat="50.704959" lon="5.743792"><time>2026-05-07T21:10:36Z</time></trkpt>
<trkpt lat="50.704047" lon="5.745705"><time>2026-05-07T21:20:36Z</time></trkpt>
<trkpt lat="50.704160" lon="5.746506"><time>2026-05-07T21:30:36Z</time></trkpt>
</trkseg>
</trk>
<trk>
<name>ldhsa39</name>
<cmt>q</cmt>
<desc>Saint-André Sentier n°39 </desc>
<link href="https://chemins.be/saintandre/sentier/39"/><trkseg>
<trkpt lat="50.699205" lon="5.745460"><time>2026-05-07T20:40:36Z</time></trkpt>
<trkpt lat="50.697383" lon="5.744587"><time>2026-05-07T20:50:36Z</time></trkpt>
</trkseg>
</trk>
<trk>
<name>ldhsa40</name>
<cmt>q</cmt>
<desc>Saint-André Sentier n°40 </desc>
<link href="https://chemins.be/saintandre/sentier/40"/><trkseg>
<trkpt lat="50.696064" lon="5.751541"><time>2026-05-07T20:40:36Z</time></trkpt>
<trkpt lat="50.695280" lon="5.749810"><time>2026-05-07T20:50:36Z</time></trkpt>
<trkpt lat="50.695965" lon="5.747107"><time>2026-05-07T21:00:36Z</time></trkpt>
<trkpt lat="50.695715" lon="5.746434"><time>2026-05-07T21:10:36Z</time></trkpt>
<trkpt lat="50.697396" lon="5.744567"><time>2026-05-07T21:20:36Z</time></trkpt>
</trkseg>
</trk>
<trk>
<name>ldhsa42</name>
<cmt>q</cmt>
<desc>Saint-André Sentier n°42 </desc>
<link href="https://chemins.be/saintandre/sentier/42"/><trkseg>
<trkpt lat="50.694941" lon="5.753753"><time>2026-05-07T20:40:36Z</time></trkpt>
<trkpt lat="50.694537" lon="5.753170"><time>2026-05-07T20:50:36Z</time></trkpt>
<trkpt lat="50.692395" lon="5.751286"><time>2026-05-07T21:00:36Z</time></trkpt>
<trkpt lat="50.691566" lon="5.751053"><time>2026-05-07T21:10:36Z</time></trkpt>
</trkseg></trk>
<trk>
<name>ldhsa42</name>
<cmt>v</cmt>
<desc>Saint-André Sentier n°42 </desc>
<link href="https://chemins.be/saintandre/sentier/42"/><trkseg>
<trkpt lat="50.691566" lon="5.751053"><time>2026-05-07T21:10:36Z</time></trkpt>
<trkpt lat="50.691153" lon="5.750442"><time>2026-05-07T21:20:36Z</time></trkpt>
<trkpt lat="50.690827" lon="5.749921"><time>2026-05-07T21:30:36Z</time></trkpt>
<trkpt lat="50.690831" lon="5.748859"><time>2026-05-07T21:40:36Z</time></trkpt>
<trkpt lat="50.690485" lon="5.748467"><time>2026-05-07T21:50:36Z</time></trkpt>
</trkseg>
</trk>
<trk>
<name>ldhsa43</name>
<cmt>v</cmt>
<desc>Saint-André Sentier n°43 </desc>
<link href="https://chemins.be/saintandre/sentier/43"/><trkseg>
<trkpt lat="50.693657" lon="5.754746"><time>2026-05-07T20:40:36Z</time></trkpt>
<trkpt lat="50.693273" lon="5.755216"><time>2026-05-07T20:50:36Z</time></trkpt>
<trkpt lat="50.692808" lon="5.756547"><time>2026-05-07T21:00:36Z</time></trkpt>
<trkpt lat="50.692567" lon="5.757134"><time>2026-05-07T21:10:36Z</time></trkpt>
</trkseg>
</trk>
<trk>
<name>ldhsa44</name>
<cmt>q</cmt>
<desc>Saint-André Sentier n°44 </desc>
<link href="https://chemins.be/saintandre/sentier/44"/><trkseg>
<trkpt lat="50.691151" lon="5.751835"><time>2026-05-07T20:40:36Z</time></trkpt>
<trkpt lat="50.691141" lon="5.755261"><time>2026-05-07T20:50:36Z</time></trkpt>
<trkpt lat="50.690362" lon="5.760024"><time>2026-05-07T21:00:36Z</time></trkpt>
<trkpt lat="50.689120" lon="5.763400"><time>2026-05-07T21:10:36Z</time></trkpt>
<trkpt lat="50.688024" lon="5.766240"><time>2026-05-07T21:20:36Z</time></trkpt>
<trkpt lat="50.687865" lon="5.767634"><time>2026-05-07T21:30:36Z</time></trkpt>
<trkpt lat="50.687240" lon="5.768829"><time>2026-05-07T21:40:36Z</time></trkpt>
<trkpt lat="50.687752" lon="5.768986"><time>2026-05-07T21:50:36Z</time></trkpt>
<trkpt lat="50.687870" lon="5.769201"><time>2026-05-07T22:00:36Z</time></trkpt>
</trkseg>
</trk>
<trk>
<name>ldhsa45</name>
<cmt>q</cmt>
<desc>Saint-André Sentier n°45 </desc>
<link href="https://chemins.be/saintandre/sentier/45"/><trkseg>
<trkpt lat="50.683991" lon="5.758293"><time>2026-05-07T20:40:36Z</time></trkpt>
<trkpt lat="50.684181" lon="5.758708"><time>2026-05-07T20:50:36Z</time></trkpt>
<trkpt lat="50.685853" lon="5.759831"><time>2026-05-07T21:00:36Z</time></trkpt>
<trkpt lat="50.686732" lon="5.760882"><time>2026-05-07T21:10:36Z</time></trkpt>
<trkpt lat="50.687466" lon="5.760933"><time>2026-05-07T21:20:36Z</time></trkpt>
<trkpt lat="50.687698" lon="5.761080"><time>2026-05-07T21:30:36Z</time></trkpt>
<trkpt lat="50.688155" lon="5.761376"><time>2026-05-07T21:40:36Z</time></trkpt>
<trkpt lat="50.688898" lon="5.762714"><time>2026-05-07T21:50:36Z</time></trkpt>
<trkpt lat="50.689374" lon="5.763229"><time>2026-05-07T22:00:36Z</time></trkpt>
<trkpt lat="50.690086" lon="5.765982"><time>2026-05-07T22:10:36Z</time></trkpt>
</trkseg>
</trk>
<trk>
<name>ldhsa46</name>
<cmt>q</cmt>
<desc>Saint-André Sentier n°46 </desc>
<link href="https://chemins.be/saintandre/sentier/46"/><trkseg>
<trkpt lat="50.692395" lon="5.761539"><time>2026-05-07T20:40:36Z</time></trkpt>
<trkpt lat="50.691534" lon="5.761482"><time>2026-05-07T20:50:36Z</time></trkpt>
<trkpt lat="50.690764" lon="5.760938"><time>2026-05-07T21:00:36Z</time></trkpt>
<trkpt lat="50.690356" lon="5.760223"><time>2026-05-07T21:10:36Z</time></trkpt>
<trkpt lat="50.689033" lon="5.763727"><time>2026-05-07T21:20:36Z</time></trkpt>
<trkpt lat="50.688336" lon="5.764001"><time>2026-05-07T21:30:36Z</time></trkpt>
<trkpt lat="50.687960" lon="5.763615"><time>2026-05-07T21:40:36Z</time></trkpt>
<trkpt lat="50.687040" lon="5.763107"><time>2026-05-07T21:50:36Z</time></trkpt>
<trkpt lat="50.685129" lon="5.764245"><time>2026-05-07T22:00:36Z</time></trkpt>
<trkpt lat="50.684950" lon="5.764470"><time>2026-05-07T22:10:36Z</time></trkpt>
<trkpt lat="50.684685" lon="5.764560"><time>2026-05-07T22:20:36Z</time></trkpt>
<trkpt lat="50.684467" lon="5.764892"><time>2026-05-07T22:30:36Z</time></trkpt>
</trkseg>
</trk>
<trk>
<name>ldhsa46bis</name>
<cmt>q</cmt>
<desc>Saint-André Sentier n°46bis </desc>
<link href="https://chemins.be/saintandre/sentier/46bis"/><trkseg>
<trkpt lat="50.684667" lon="5.764510"><time>2026-05-07T20:40:36Z</time></trkpt>
<trkpt lat="50.684506" lon="5.764581"><time>2026-05-07T20:50:36Z</time></trkpt>
<trkpt lat="50.684334" lon="5.764824"><time>2026-05-07T21:00:36Z</time></trkpt>
</trkseg>
</trk>
<trk>
<name>ldhsa47</name>
<cmt>q</cmt>
<desc>Saint-André Sentier n°47 </desc>
<link href="https://chemins.be/saintandre/sentier/47"/><trkseg>
<trkpt lat="50.688735" lon="5.756956"><time>2026-05-07T20:40:36Z</time></trkpt>
<trkpt lat="50.688858" lon="5.758021"><time>2026-05-07T20:50:36Z</time></trkpt>
<trkpt lat="50.688645" lon="5.759459"><time>2026-05-07T21:00:36Z</time></trkpt>
<trkpt lat="50.687691" lon="5.761079"><time>2026-05-07T21:10:36Z</time></trkpt>
<trkpt lat="50.687630" lon="5.761183"><time>2026-05-07T21:20:36Z</time></trkpt>
<trkpt lat="50.685083" lon="5.761963"><time>2026-05-07T21:30:36Z</time></trkpt>
<trkpt lat="50.684711" lon="5.762499"><time>2026-05-07T21:40:36Z</time></trkpt>
<trkpt lat="50.684009" lon="5.762785"><time>2026-05-07T21:50:36Z</time></trkpt>
<trkpt lat="50.683610" lon="5.763529"><time>2026-05-07T22:00:36Z</time></trkpt>
</trkseg>
</trk>
<trk>
<name>ldhsa51</name>
<cmt>q</cmt>
<desc>Saint-André Sentier n°51 </desc>
<link href="https://chemins.be/saintandre/sentier/51"/><trkseg>
<trkpt lat="50.680096" lon="5.764886"><time>2026-05-07T20:40:36Z</time></trkpt>
<trkpt lat="50.681628" lon="5.764657"><time>2026-05-07T20:50:36Z</time></trkpt>
<trkpt lat="50.682072" lon="5.764344"><time>2026-05-07T21:00:36Z</time></trkpt>
<trkpt lat="50.682743" lon="5.763870"><time>2026-05-07T21:10:36Z</time></trkpt>
<trkpt lat="50.683613" lon="5.763541"><time>2026-05-07T21:20:36Z</time></trkpt>
</trkseg>
</trk>
<trk>
<name>ldhsa52</name>
<cmt>q</cmt>
<desc>Saint-André Sentier n°52 </desc>
<link href="https://chemins.be/saintandre/sentier/52"/><trkseg>
<trkpt lat="50.684095" lon="5.758014"><time>2026-05-07T20:40:36Z</time></trkpt>
<trkpt lat="50.682821" lon="5.759738"><time>2026-05-07T20:50:36Z</time></trkpt>
</trkseg>
</trk>
<trk>
<name>ldhsa53</name>
<cmt>q</cmt>
<desc>Saint-André Sentier n°53 </desc>
<link href="https://chemins.be/saintandre/sentier/53"/><trkseg>
<trkpt lat="50.680886" lon="5.761934"><time>2026-05-07T20:40:36Z</time></trkpt>
<trkpt lat="50.681779" lon="5.761533"><time>2026-05-07T20:50:36Z</time></trkpt>
<trkpt lat="50.682722" lon="5.760761"><time>2026-05-07T21:00:36Z</time></trkpt>
</trkseg>
</trk>
<trk>
<name>ldhsa56</name>
<cmt>q</cmt>
<desc>Saint-André Sentier n°56 </desc>
<link href="https://chemins.be/saintandre/sentier/56"/><trkseg>
<trkpt lat="50.685113" lon="5.771809"><time>2026-05-07T20:40:36Z</time></trkpt>
<trkpt lat="50.684452" lon="5.770475"><time>2026-05-07T20:50:36Z</time></trkpt>
<trkpt lat="50.684549" lon="5.770260"><time>2026-05-07T21:00:36Z</time></trkpt>
</trkseg>
</trk>
<trk>
<name>ldhsa59</name>
<cmt>q</cmt>
<desc>Saint-André Sentier n°59 Rue de Loneux</desc>
<link href="https://chemins.be/saintandre/sentier/59"/><trkseg>
<trkpt lat="50.676055" lon="5.769179"><time>2026-05-07T20:40:36Z</time></trkpt>
<trkpt lat="50.675316" lon="5.770989"><time>2026-05-07T20:50:36Z</time></trkpt>
</trkseg>
</trk>
<trk>
<name>ldhsa6</name>
<cmt>q</cmt>
<desc>Saint-André Chemin n°6 </desc>
<link href="https://chemins.be/saintandre/chemin/6"/><trkseg>
<trkpt lat="50.699865" lon="5.745547"><time>2026-05-07T20:40:36Z</time></trkpt>
<trkpt lat="50.700565" lon="5.746102"><time>2026-05-07T20:50:36Z</time></trkpt>
<trkpt lat="50.702013" lon="5.747250"><time>2026-05-07T21:00:36Z</time></trkpt>
<trkpt lat="50.702878" lon="5.746799"><time>2026-05-07T21:10:36Z</time></trkpt>
<trkpt lat="50.703263" lon="5.747400"><time>2026-05-07T21:20:36Z</time></trkpt>
</trkseg>
</trk>
<trk>
<name>ldhsa61</name>
<cmt>q</cmt>
<desc>Saint-André Chemin n°61 </desc>
<link href="https://chemins.be/saintandre/chemin/61"/><trkseg>
<trkpt lat="50.690641" lon="5.764912"><time>2026-05-07T20:40:36Z</time></trkpt>
<trkpt lat="50.691013" lon="5.765568"><time>2026-05-07T20:50:36Z</time></trkpt>
</trkseg>
</trk>
<trk>
<name>ldhsa62</name>
<cmt>q</cmt>
<desc>Saint-André Sentier n°62 </desc>
<link href="https://chemins.be/saintandre/sentier/62"/><trkseg>
<trkpt lat="50.682339" lon="5.756137"><time>2026-05-07T20:40:36Z</time></trkpt>
<trkpt lat="50.682469" lon="5.756807"><time>2026-05-07T20:50:36Z</time></trkpt>
<trkpt lat="50.682460" lon="5.757358"><time>2026-05-07T21:00:36Z</time></trkpt>
</trkseg>
</trk>
<trk>
<name>ldhsa64</name>
<cmt>q</cmt>
<desc>Saint-André Sentier n°64 </desc>
<link href="https://chemins.be/saintandre/sentier/64"/><trkseg>
<trkpt lat="50.707451" lon="5.731257"><time>2026-05-07T20:40:36Z</time></trkpt>
<trkpt lat="50.708429" lon="5.731221"><time>2026-05-07T20:50:36Z</time></trkpt>
<trkpt lat="50.710291" lon="5.731292"><time>2026-05-07T21:00:36Z</time></trkpt>
</trkseg>
</trk>
<trk>
<name>ldhsa7</name>
<cmt>v</cmt>
<desc>Saint-André Chemin n°7 </desc>
<link href="https://chemins.be/saintandre/chemin/7"/><trkseg>
<trkpt lat="50.705711" lon="5.734475"><time>2026-05-07T20:40:36Z</time></trkpt>
<trkpt lat="50.705136" lon="5.732315"><time>2026-05-07T20:50:36Z</time></trkpt>
</trkseg>
</trk>
<trk>
<name>ldhsa8</name>
<cmt>q</cmt>
<desc>Saint-André Chemin n°8 Gérard Sart</desc>
<link href="https://chemins.be/saintandre/chemin/8"/><trkseg>
<trkpt lat="50.682528" lon="5.757578"><time>2026-05-07T20:40:36Z</time></trkpt>
<trkpt lat="50.682827" lon="5.759717"><time>2026-05-07T20:50:36Z</time></trkpt>
<trkpt lat="50.682723" lon="5.760797"><time>2026-05-07T21:00:36Z</time></trkpt>
<trkpt lat="50.683321" lon="5.762027"><time>2026-05-07T21:10:36Z</time></trkpt>
<trkpt lat="50.683543" lon="5.763414"><time>2026-05-07T21:20:36Z</time></trkpt>
<trkpt lat="50.683946" lon="5.764323"><time>2026-05-07T21:30:36Z</time></trkpt>
<trkpt lat="50.683949" lon="5.764723"><time>2026-05-07T21:40:36Z</time></trkpt>
</trkseg></trk>
<trk>
<name>ldhsa8</name>
<cmt>d</cmt>
<desc>Saint-André Chemin n°8 Gérard Sart</desc>
<link href="https://chemins.be/saintandre/chemin/8"/><trkseg>
<trkpt lat="50.683949" lon="5.764723"><time>2026-05-07T21:40:36Z</time></trkpt>
<trkpt lat="50.683955" lon="5.764809"><time>2026-05-07T21:50:36Z</time></trkpt>
<trkpt lat="50.684415" lon="5.764830"><time>2026-05-07T22:00:36Z</time></trkpt>
</trkseg></trk>
<trk>
<name>ldhsa8</name>
<cmt>v</cmt>
<desc>Saint-André Chemin n°8 Gérard Sart</desc>
<link href="https://chemins.be/saintandre/chemin/8"/><trkseg>
<trkpt lat="50.684415" lon="5.764830"><time>2026-05-07T22:00:36Z</time></trkpt>
<trkpt lat="50.685082" lon="5.766069"><time>2026-05-07T22:10:36Z</time></trkpt>
</trkseg></trk>
<trk>
<name>ldhsa8</name>
<cmt>r</cmt>
<desc>Saint-André Chemin n°8 Gérard Sart</desc>
<link href="https://chemins.be/saintandre/chemin/8"/><trkseg>
<trkpt lat="50.685082" lon="5.766069"><time>2026-05-07T22:10:36Z</time></trkpt>
<trkpt lat="50.685284" lon="5.766437"><time>2026-05-07T22:20:36Z</time></trkpt>
<trkpt lat="50.685291" lon="5.766752"><time>2026-05-07T22:30:36Z</time></trkpt>
<trkpt lat="50.685078" lon="5.767589"><time>2026-05-07T22:40:36Z</time></trkpt>
<trkpt lat="50.685120" lon="5.768006"><time>2026-05-07T22:50:36Z</time></trkpt>
<trkpt lat="50.685523" lon="5.770102"><time>2026-05-07T23:00:36Z</time></trkpt>
</trkseg>
</trk>
<trk>
<name>ldhsa9</name>
<cmt>v</cmt>
<desc>Saint-André Chemin n°9 </desc>
<link href="https://chemins.be/saintandre/chemin/9"/><trkseg>
<trkpt lat="50.692120" lon="5.753186"><time>2026-05-07T20:40:36Z</time></trkpt>
<trkpt lat="50.691174" lon="5.751799"><time>2026-05-07T20:50:36Z</time></trkpt>
<trkpt lat="50.691578" lon="5.751061"><time>2026-05-07T21:00:36Z</time></trkpt>
<trkpt lat="50.691110" lon="5.750382"><time>2026-05-07T21:10:36Z</time></trkpt>
<trkpt lat="50.690606" lon="5.750367"><time>2026-05-07T21:20:36Z</time></trkpt>
<trkpt lat="50.689545" lon="5.749642"><time>2026-05-07T21:30:36Z</time></trkpt>
<trkpt lat="50.688294" lon="5.749174"><time>2026-05-07T21:40:36Z</time></trkpt>
<trkpt lat="50.687253" lon="5.748825"><time>2026-05-07T21:50:36Z</time></trkpt>
<trkpt lat="50.686569" lon="5.748862"><time>2026-05-07T22:00:36Z</time></trkpt>
<trkpt lat="50.685818" lon="5.748500"><time>2026-05-07T22:10:36Z</time></trkpt>
</trkseg>
</trk>
<trk>
<name>ldhsaLv719</name>
<cmt>v</cmt>
<desc>Saint-André Chemin n°Lv719 </desc>
<link href="https://chemins.be/saintandre/chemin/Lv719"/><trkseg>
<trkpt lat="50.710938" lon="5.739154"><time>2026-05-07T20:40:36Z</time></trkpt>
<trkpt lat="50.711221" lon="5.737629"><time>2026-05-07T20:50:36Z</time></trkpt>
<trkpt lat="50.711270" lon="5.737383"><time>2026-05-07T21:00:36Z</time></trkpt>
<trkpt lat="50.711571" lon="5.735847"><time>2026-05-07T21:10:36Z</time></trkpt>
<trkpt lat="50.711667" lon="5.735439"><time>2026-05-07T21:20:36Z</time></trkpt>
<trkpt lat="50.712222" lon="5.732701"><time>2026-05-07T21:30:36Z</time></trkpt>
<trkpt lat="50.712472" lon="5.731722"><time>2026-05-07T21:40:36Z</time></trkpt>
</trkseg>
</trk>
<trk>
<name>ldhsap1</name>
<cmt>r</cmt>
<desc>Saint-André Chemin particulier n°p1 </desc>
<link href="https://chemins.be/saintandre/chemin/p1"/><trkseg>
<trkpt lat="50.681453" lon="5.758665"><time>2026-05-07T20:40:36Z</time></trkpt>
<trkpt lat="50.680836" lon="5.759159"><time>2026-05-07T20:50:36Z</time></trkpt>
<trkpt lat="50.680651" lon="5.759137"><time>2026-05-07T21:00:36Z</time></trkpt>
</trkseg></trk>
<trk>
<name>ldhsap1</name>
<cmt>d</cmt>
<desc>Saint-André Chemin particulier n°p1 </desc>
<link href="https://chemins.be/saintandre/chemin/p1"/><trkseg>
<trkpt lat="50.680651" lon="5.759137"><time>2026-05-07T21:00:36Z</time></trkpt>
<trkpt lat="50.679477" lon="5.759652"><time>2026-05-07T21:10:36Z</time></trkpt>
</trkseg>
</trk>
</gpx>